Location: Anne Acres
(38.7004°N, 75.0827°W)
Time: 01:33:37
(UTC+00:00)

Tiros 1 - Visible Passes

Search period start: 05 November 2024 00:00
Search period end: 15 November 2024 00:00
Orbit: 622 x 654 km, 48.4° (Epoch: 04 November)

Date Brightness Start Highest point End Pass type
(mag) Time Alt. Az. Time Alt. Az. Time Alt. Az.
05 Nov 9.1 00:23:07 10° SW 00:24:52 22° SSW 00:24:52 22° SSW visible
05 Nov 8.7 23:05:53 10° S 23:09:10 19° SE 23:10:02 18° ESE visible
06 Nov 9.4 00:45:58 10° WSW 00:47:32 21° WSW 00:47:32 21° WSW visible
06 Nov 7.7 23:27:33 10° SSW 23:31:58 40° SE 23:32:37 38° ESE visible
07 Nov 10.0 01:09:22 10° W 01:10:08 14° W 01:10:08 14° W visible
07 Nov 7.0 23:50:13 10° SW 23:54:57 84° SSE 23:55:06 82° ESE visible
08 Nov 8.0 22:32:00 10° SSW 22:36:14 34° SE 22:39:59 13° ENE visible
09 Nov 7.9 00:13:29 10° WSW 00:17:29 49° WNW 00:17:29 49° WNW visible
09 Nov 7.2 22:54:28 10° SW 22:59:09 72° SE 23:02:17 21° ENE visible
10 Nov 9.1 00:37:07 10° W 00:39:46 27° WNW 00:39:46 27° WNW visible
10 Nov 7.5 23:17:35 10° WSW 23:22:15 61° NNW 23:24:29 30° NE visible
11 Nov 9.9 01:00:54 10° WNW 01:01:58 15° WNW 01:01:58 15° WNW visible
11 Nov 8.1 23:41:08 10° W 23:45:32 38° NNW 23:46:37 33° N visible
12 Nov 7.4 22:21:41 10° WSW 22:26:22 70° NNW 22:31:07 10° NE visible
13 Nov 8.6 00:04:52 10° WNW 00:08:43 28° NNW 00:08:43 28° NNW visible
13 Nov 8.0 22:45:07 10° W 22:49:36 41° NNW 22:53:17 15° NE visible
14 Nov 9.3 00:28:34 10° WNW 00:30:45 20° NW 00:30:45 20° NW visible
14 Nov 8.5 23:08:49 10° WNW 23:12:58 30° NNW 23:15:17 20° NNE visible
